User: anonymous   Login
Location: ????
(30.1475°N, 31.1342°E)
Time: 17:51:18
(UTC+00:00)
Language:

COSMOS 2251 DEB - Orbit

View from above orbital plane
View from above orbital plane
View from above satellite
View from above satellite

Ground track
Ground track

The orbit data is extracted from the following two-line orbital elements,

1 35459U 93036ALD 24145.77414195  .00001302  00000-0  46010-3 0  9991
2 35459  73.8714 159.7152 0018590 225.0478 134.9167 14.35632549502199
Epoch (UTC): 24 May 2024 18:34:45
Eccentricity: 0.0018590
inclination: 73.8714°
perigee height: 759 km
apogee height: 786 km
right ascension of ascending node: 159.7152°
argument of perigee: 225.0478°
revolutions per day: 14.35632549
mean anomaly at epoch: 134.9167°
orbit number at epoch: 50219

The dashed part of the orbit path shows where the satellite is in the earth's shadow,  

DLR